FW5469 Weather Reports


Display with metric or nautical units.
time (UTC)temp
F
wind
direction
speed
MPH
gust
MPH
rain 1hr
in
rain 24hr
in
rain mn
in
humidity
%
barometer
mb
20260901113117 77 177 0.0 4.0 0.00 0.00 0.00 83 1015.5
20260901111606 77 169 0.0 3.0 0.00 0.00 0.00 83 1015.3
20260901110109 77 0 0.0 1.0 0.00 0.00 0.00 82 1015.2
20260901104611 78 220 0.0 5.0 0.00 0.00 0.00 82 1015.0
20260901103103 78 166 0.0 3.0 0.00 0.00 0.00 82 1015.0
20260901101607 78 201 1.0 5.0 0.00 0.00 0.00 82 1014.9
20260901094603 77 0 0.0 5.0 0.00 0.00 0.00 82 1014.9
20260901093111 77 236 1.0 4.0 0.00 0.00 0.00 82 1014.9
20260901091614 77 238 1.0 8.0 0.00 0.00 0.00 81 1014.8
20260901090107 78 214 1.0 5.0 0.00 0.00 0.00 81 1014.9
20260901084613 78 210 1.0 6.0 0.00 0.00 0.00 81 1014.9
20260901083102 78 164 1.0 4.0 0.00 0.00 0.00 80 1014.8
20260901081606 78 214 1.0 5.0 0.00 0.00 0.00 80 1014.9
20260901080110 78 245 1.0 3.0 0.00 0.00 0.00 80 1014.9
20260901074604 78 206 2.0 6.0 0.00 0.00 0.00 80 1015.0
20260901073218 78 218 1.0 5.0 0.00 0.00 0.00 79 1015.1
20260901071606 78 218 1.0 5.0 0.00 0.00 0.00 79 1015.1
20260901070111 78 167 1.0 6.0 0.00 0.00 0.00 79 1015.1
20260901064604 78 160 2.0 5.0 0.00 0.00 0.00 78 1015.1
20260901063105 79 233 2.0 6.0 0.00 0.00 0.00 78 1015.1
20260901061605 79 158 1.0 5.0 0.00 0.00 0.00 78 1015.2
20260901060105 79 244 2.0 6.0 0.00 0.00 0.00 78 1015.3
20260901054610 79 158 1.0 5.0 0.00 0.00 0.00 78 1015.4
20260901053101 78 0 0.0 5.0 0.00 0.00 0.00 80 1015.6
20260901051609 76 0 0.0 0.0 0.00 0.00 0.00 83 1015.6
20260901050108 75 0 0.0 0.0 0.00 0.00 0.00 85 1015.5
20260901044601 75 0 0.0 0.0 0.00 0.00 0.00 86 1015.6
20260901043102 75 0 0.0 0.0 0.00 0.00 0.00 86 1015.6
20260901041632 75 0 0.0 0.0 0.00 0.00 0.00 86 1015.5
20260901040113 75 0 0.0 0.0 0.00 0.00 0.00 87 1015.7
20260901034610 75 165 0.0 1.0 0.00 0.00 0.00 87 1015.8
20260901033107 75 0 0.0 0.0 0.00 0.00 0.00 87 1015.8
20260901031603 74 0 0.0 0.0 0.00 0.00 0.00 86 1015.8
20260901030104 74 0 0.0 0.0 0.00 0.00 0.00 86 1015.6
20260901024603 74 0 0.0 0.0 0.00 0.00 0.00 86 1015.6
20260901023101 74 0 0.0 0.0 0.00 0.00 0.00 85 1015.5
20260901021604 75 0 0.0 0.0 0.00 0.00 0.00 84 1015.7
20260901020105 75 0 0.0 0.0 0.00 0.00 0.00 83 1015.9
20260901014605 76 0 0.0 0.0 0.00 0.00 0.00 82 1016.0
20260901013107 77 0 0.0 0.0 0.00 0.00 0.00 81 1016.1
20260901011600 78 0 0.0 0.0 0.00 0.00 0.00 80 1015.8
20260901010106 79 0 0.0 0.0 0.00 0.00 0.00 78 1015.5
20260901004606 79 0 0.0 1.0 0.00 0.00 0.00 77 1015.1
20260901003103 80 225 1.0 2.0 0.00 0.00 0.00 77 1015.5
20260901001604 81 197 0.0 3.0 0.00 0.00 0.00 77 1015.9
20260901000106 81 195 1.0 2.0 0.00 0.00 0.00 76 1015.9
20260831234559 82 226 0.0 2.0 0.00 0.00 0.00 75 1016.0
20260831233107 82 0 0.0 3.0 0.00 0.00 0.00 74 1016.1
20260831231610 83 0 0.0 0.0 0.00 0.00 0.00 72 1016.2
20260831230106 84 0 0.0 0.0 0.00 0.00 0.00 71 1016.2
20260831224606 84 0 0.0 0.0 0.00 0.00 0.00 69 1016.4
20260831223101 85 0 0.0 0.0 0.00 0.00 0.00 67 1016.3
20260831221607 86 0 0.0 2.0 0.00 0.00 0.00 66 1016.3
20260831220105 86 204 0.0 3.0 0.00 0.00 0.00 67 1016.3
20260831214630 85 295 0.0 2.0 0.00 0.00 0.00 66 1016.3
20260831213103 86 326 1.0 2.0 0.00 0.00 0.00 66 1016.3
20260831211608 85 0 0.0 4.0 0.00 0.00 0.00 66 1016.4
20260831210100 85 301 2.0 5.0 0.00 0.00 0.00 65 1016.7
20260831204603 87 313 2.0 6.0 0.00 0.00 0.00 62 1016.6
20260831203105 88 232 2.0 6.0 0.00 0.00 0.00 62 1016.5
20260831201605 87 328 1.0 3.0 0.00 0.00 0.00 63 1016.4
20260831200106 86 300 0.0 3.0 0.00 0.00 0.00 66 1016.4
20260831194625 85 0 0.0 1.0 0.00 0.00 0.00 69 1016.4
20260831193101 85 0 0.0 4.0 0.00 0.00 0.00 67 1016.5
20260831191603 85 0 0.0 2.0 0.00 0.00 0.00 65 1016.9
20260831190109 86 174 2.0 9.0 0.00 0.00 0.00 63 1017.1
20260831184605 87 0 0.0 6.0 0.00 0.00 0.00 62 1017.1
20260831183108 88 158 1.0 7.0 0.00 0.00 0.00 62 1017.3
20260831181605 87 331 3.0 8.0 0.00 0.00 0.00 63 1017.3
20260831180107 86 276 2.0 10.0 0.00 0.00 0.00 66 1017.7
20260831174604 85 297 1.0 8.0 0.00 0.00 0.00 68 1017.7
20260831173105 85 219 0.0 6.0 0.00 0.00 0.00 68 1017.6
20260831171606 86 238 2.0 6.0 0.00 0.00 0.00 67 1017.7
20260831170107 86 0 1.0 7.0 0.00 0.00 0.00 67 1017.8
20260831164613 85 311 1.0 7.0 0.00 0.00 0.00 68 1017.8
20260831163106 86 295 1.0 6.0 0.00 0.00 0.00 67 1017.6
20260831161609 86 282 2.0 7.0 0.00 0.00 0.00 65 1017.7
20260831154629 83 160 1.0 4.0 0.00 0.00 0.00 69 1017.8
20260831153105 83 159 1.0 6.0 0.00 0.00 0.00 68 1017.7
20260831151608 83 0 1.0 4.0 0.00 0.00 0.00 68 1017.8
20260831150104 83 321 2.0 6.0 0.00 0.00 0.00 70 1017.8
20260831144610 81 205 1.0 5.0 0.00 0.00 0.00 74 1017.8
20260831143113 80 195 1.0 4.0 0.00 0.00 0.00 76 1017.7
20260831141608 79 243 2.0 6.0 0.00 0.00 0.00 78 1017.7
20260831140107 77 155 1.0 3.0 0.00 0.00 0.00 79 1017.7
20260831134604 76 0 0.0 0.0 0.00 0.00 0.00 80 1017.7
20260831133105 76 0 0.0 0.0 0.00 0.00 0.00 80 1017.7
20260831131605 76 0 0.0 0.0 0.00 0.00 0.00 80 1017.7
20260831130121 75 0 0.0 0.0 0.00 0.00 0.00 82 1017.7
20260831124606 74 0 0.0 0.0 0.00 0.00 0.00 84 1017.4
20260831123107 73 0 0.0 0.0 0.00 0.00 0.00 85 1017.5
20260831121612 72 0 0.0 0.0 0.00 0.00 0.00 86 1017.6
20260831120100 72 0 0.0 0.0 0.00 0.00 0.00 87 1017.8
20260831114607 71 0 0.0 0.0 0.00 0.00 0.00 88 1017.7